DW1980 Weather Reports


time (UTC)temp
F
wind
direction
speed
knots
gust
knots
rain 1hr
in
rain 24hr
in
rain mn
in
humidity
%
barometer
mb
20210518191841 82 281 0.0 5.2 0.00 0.00 0.00 31 1024.8
20210518191352 82 281 0.9 5.2 0.00 0.00 0.00 33 1024.9
20210518190843 82 221 2.6 5.2 0.00 0.00 0.00 33 1025.1
20210518190351 81 273 0.9 8.7 0.00 0.00 0.00 36 1025.2
20210518185837 81 273 2.6 8.7 0.00 0.00 0.00 35 1025.2
20210518185347 81 277 2.6 7.8 0.00 0.00 0.00 33 1025.3
20210518184836 82 284 1.7 7.0 0.00 0.00 0.00 33 1025.3
20210518184346 82 279 1.7 7.0 0.00 0.00 0.00 35 1025.3
20210518183838 82 217 1.7 7.8 0.00 0.00 0.00 34 1025.3
20210518183350 82 219 2.6 7.8 0.00 0.00 0.00 36 1025.5
20210518182837 82 248 1.7 10.4 0.00 0.00 0.00 36 1025.6
20210518182347 81 277 3.5 10.4 0.00 0.00 0.00 35 1025.6
20210518181837 81 240 0.9 2.6 0.00 0.00 0.00 36 1025.6
20210518181347 81 240 1.7 3.5 0.00 0.00 0.00 35 1025.7
20210518180841 82 240 1.7 8.7 0.00 0.00 0.00 34 1025.7
20210518180349 82 286 2.6 8.7 0.00 0.00 0.00 35 1025.7
20210518175856 82 276 0.9 8.7 0.00 0.00 0.00 39 1025.8
20210518175344 81 110 2.6 8.7 0.00 0.00 0.00 35 1025.9
20210518174852 81 236 1.7 6.1 0.00 0.00 0.00 34 1026.0
20210518174342 81 229 1.7 6.1 0.00 0.00 0.00 35 1026.1
20210518173853 81 213 3.5 7.0 0.00 0.00 0.00 38 1026.1
20210518173341 81 275 0.9 6.1 0.00 0.00 0.00 37 1026.3
20210518172847 81 355 1.7 7.8 0.00 0.00 0.00 37 1026.4
20210518172335 81 258 0.9 7.0 0.00 0.00 0.00 40 1026.4
20210518171845 81 101 0.9 9.6 0.00 0.00 0.00 38 1026.4
20210518171336 81 323 3.5 9.6 0.00 0.00 0.00 36 1026.5
20210518170847 81 304 2.6 11.3 0.00 0.00 0.00 38 1026.7
20210518170357 80 275 2.6 11.3 0.00 0.00 0.00 40 1026.7
20210518165844 80 283 4.3 11.3 0.00 0.00 0.00 40 1026.8
20210518165335 80 312 0.9 8.7 0.00 0.00 0.00 38 1026.8
20210518164845 79 225 1.7 8.7 0.00 0.00 0.00 43 1026.8
20210518164354 79 249 2.6 7.0 0.00 0.00 0.00 44 1026.9
20210518163844 79 288 3.5 7.0 0.00 0.00 0.00 43 1026.9
20210518163357 80 9 1.7 3.5 0.00 0.00 0.00 42 1027.0
20210518162843 79 342 0.0 9.6 0.00 0.00 0.00 45 1027.2
20210518162353 79 286 4.3 9.6 0.00 0.00 0.00 44 1027.3
20210518161844 79 269 0.0 4.3 0.00 0.00 0.00 44 1027.3
20210518161354 79 237 1.7 4.3 0.00 0.00 0.00 43 1027.4
20210518160845 79 301 0.9 7.0 0.00 0.00 0.00 49 1027.5
20210518160357 78 286 2.6 7.0 0.00 0.00 0.00 47 1027.7
20210518155844 78 265 3.5 7.8 0.00 0.00 0.00 45 1027.7
20210518155337 78 277 1.7 7.8 0.00 0.00 0.00 46 1027.7
20210518154846 78 250 1.7 7.0 0.00 0.00 0.00 47 1027.8
20210518154355 78 261 1.7 11.3 0.00 0.00 0.00 49 1027.8
20210518153845 78 254 3.5 11.3 0.00 0.00 0.00 45 1027.8
20210518153356 78 209 0.9 10.4 0.00 0.00 0.00 46 1027.7
20210518152844 77 296 3.5 10.4 0.00 0.00 0.00 45 1027.7
20210518152353 77 263 0.0 7.0 0.00 0.00 0.00 47 1027.7
20210518151844 77 324 1.7 12.2 0.00 0.00 0.00 45 1027.8
20210518151354 76 275 3.5 11.3 0.00 0.00 0.00 48 1027.8
20210518150843 76 277 3.5 9.6 0.00 0.00 0.00 48 1027.9
20210518150355 76 267 2.6 7.0 0.00 0.00 0.00 48 1027.9
20210518145843 75 279 1.7 8.7 0.00 0.00 0.00 51 1027.9
20210518145354 75 302 2.6 8.7 0.00 0.00 0.00 50 1027.9
20210518144844 74 275 1.7 6.1 0.00 0.00 0.00 53 1027.9
20210518144335 74 265 0.9 5.2 0.00 0.00 0.00 51 1028.0
20210518143846 73 223 1.7 3.5 0.00 0.00 0.00 54 1028.0
20210518143358 73 199 0.9 4.3 0.00 0.00 0.00 52 1027.9
20210518142844 72 294 0.9 6.1 0.00 0.00 0.00 53 1028.0
20210518142354 72 259 1.7 7.8 0.00 0.00 0.00 53 1028.0
20210518141845 72 290 1.7 7.8 0.00 0.00 0.00 51 1028.0
20210518141355 72 263 1.7 6.1 0.00 0.00 0.00 52 1028.0
20210518140844 71 265 1.7 8.7 0.00 0.00 0.00 52 1028.0
20210518140356 71 265 3.5 10.4 0.00 0.00 0.00 53 1028.0
20210518135844 70 276 4.3 9.6 0.00 0.00 0.00 56 1028.1
20210518135354 69 280 4.3 8.7 0.00 0.00 0.00 55 1028.1
20210518134845 69 278 0.9 3.5 0.00 0.00 0.00 59 1028.1
20210518134340 69 275 0.9 5.2 0.00 0.00 0.00 56 1028.1
20210518133849 69 275 0.9 8.7 0.00 0.00 0.00 55 1028.0
20210518133340 69 298 2.6 8.7 0.00 0.00 0.00 55 1028.0
20210518132846 69 276 0.9 6.1 0.00 0.00 0.00 57 1028.1
20210518132356 68 252 1.7 7.8 0.00 0.00 0.00 55 1028.1
20210518131843 68 285 3.5 9.6 0.00 0.00 0.00 57 1028.1
20210518131353 68 265 1.7 9.6 0.00 0.00 0.00 58 1028.0
20210518130841 67 297 4.3 9.6 0.00 0.00 0.00 58 1028.1
20210518130351 67 261 3.5 8.7 0.00 0.00 0.00 62 1028.1
20210518125855 67 279 2.6 7.8 0.00 0.00 0.00 59 1028.1
20210518125344 66 262 2.6 9.6 0.00 0.00 0.00 60 1028.2
20210518124854 66 265 5.2 9.6 0.00 0.00 0.00 63 1028.1
20210518124343 65 293 1.7 7.8 0.00 0.00 0.00 62 1028.1
20210518123854 65 314 3.5 7.8 0.00 0.00 0.00 66 1028.0
20210518123346 64 294 1.7 7.8 0.00 0.00 0.00 67 1028.0
20210518122853 64 296 4.3 7.8 0.00 0.00 0.00 67 1028.1
20210518122343 63 288 2.6 7.8 0.00 0.00 0.00 69 1028.0
20210518121854 61 277 0.9 7.0 0.00 0.00 0.00 74 1028.0
20210518121345 60 294 0.0 7.0 0.00 0.00 0.00 76 1028.0
20210518120836 58 294 1.7 7.0 0.00 0.00 0.00 81 1028.0
20210518120347 56 270 2.6 6.1 0.00 0.00 0.00 90 1028.0
20210518115853 54 270 2.6 7.8 0.00 0.00 0.00 96 1028.0
20210518115344 53 5 0.0 2.6 0.00 0.00 0.00 96 1028.0
20210518114854 53 5 0.0 1.7 0.00 0.00 0.00 96 1027.9
20210518114346 52 5 0.0 0.9 0.00 0.00 0.00 96 1028.0
20210518113856 51 5 0.0 0.0 0.00 0.00 0.00 95 1028.0
20210518113345 51 5 0.0 0.0 0.00 0.00 0.00 95 1028.0
20210518112836 50 5 0.0 0.0 0.00 0.00 0.00 95 1027.9
20210518112347 50 5 0.0 0.0 0.00 0.00 0.00 95 1027.9
20210518111857 50 274 0.0 0.9 0.00 0.00 0.00 95 1027.9
20210518111346 49 274 0.0 0.9 0.00 0.00 0.00 95 1027.8
20210518110836 49 267 0.0 0.0 0.00 0.00 0.00 95 1027.7
20210518110347 48 267 0.0 0.0 0.00 0.00 0.00 95 1027.6
20210518105853 48 267 0.0 0.0 0.00 0.00 0.00 95 1027.5
20210518105344 48 267 0.0 0.0 0.00 0.00 0.00 94 1027.5
20210518104854 47 267 0.0 0.0 0.00 0.00 0.00 94 1027.4
20210518104344 47 267 0.0 0.0 0.00 0.00 0.00 94 1027.4
20210518103855 47 267 0.0 0.0 0.00 0.00 0.00 94 1027.4
20210518103346 47 267 0.0 0.0 0.00 0.00 0.00 94 1027.3
20210518102852 47 267 0.0 0.0 0.00 0.00 0.00 94 1027.3
20210518102342 47 267 0.0 0.0 0.00 0.00 0.00 94 1027.2
20210518101852 47 267 0.0 0.0 0.00 0.00 0.00 94 1027.3
20210518101342 47 267 0.0 0.0 0.00 0.00 0.00 94 1027.2
20210518100852 47 267 0.0 0.0 0.00 0.00 0.00 94 1027.1
20210518100343 47 267 0.0 0.0 0.00 0.00 0.00 94 1027.1
20210518095851 47 267 0.0 0.0 0.00 0.00 0.00 94 1027.0
20210518095340 47 267 0.0 0.0 0.00 0.00 0.00 94 1026.9
20210518094849 47 267 0.0 0.0 0.00 0.00 0.00 94 1026.9
20210518094340 47 267 0.0 0.0 0.00 0.00 0.00 94 1026.8
20210518093850 47 267 0.0 0.0 0.00 0.00 0.00 94 1026.8
20210518093340 47 267 0.0 0.0 0.00 0.00 0.00 94 1026.8
20210518092847 47 267 0.0 0.0 0.00 0.00 0.00 94 1026.8
20210518092337 47 267 0.0 0.0 0.00 0.00 0.00 94 1026.8
20210518091847 47 267 0.0 0.0 0.00 0.00 0.00 94 1026.8
20210518091341 47 267 0.0 0.0 0.00 0.00 0.00 94 1026.8
20210518090850 47 267 0.0 0.0 0.00 0.00 0.00 94 1026.8
20210518090341 47 267 0.0 0.0 0.00 0.00 0.00 94 1026.7
20210518085848 47 267 0.0 0.0 0.00 0.00 0.00 94 1026.7
20210518085337 47 267 0.0 0.0 0.00 0.00 0.00 94 1026.7
20210518084848 47 267 0.0 0.0 0.00 0.00 0.00 94 1026.7
20210518084340 47 267 0.0 0.0 0.00 0.00 0.00 94 1026.6
20210518083849 47 267 0.0 0.0 0.00 0.00 0.00 93 1026.6
20210518083339 47 267 0.0 0.0 0.00 0.00 0.00 93 1026.6
20210518082845 47 267 0.0 0.0 0.00 0.00 0.00 93 1026.6
20210518082335 47 267 0.0 0.0 0.00 0.00 0.00 93 1026.6
20210518081846 47 267 0.0 0.0 0.00 0.00 0.00 93 1026.5
20210518081337 47 267 0.0 0.0 0.00 0.00 0.00 93 1026.5
20210518080847 47 267 0.0 0.0 0.00 0.00 0.00 93 1026.5
20210518080358 48 267 0.0 0.0 0.00 0.00 0.00 93 1026.5
20210518075843 48 267 0.0 0.0 0.00 0.00 0.00 93 1026.4
20210518075353 48 267 0.0 0.0 0.00 0.00 0.00 93 1026.4
20210518074842 48 267 0.0 0.0 0.00 0.00 0.00 93 1026.4
20210518074354 48 267 0.0 0.0 0.00 0.00 0.00 93 1026.5
20210518073844 48 267 0.0 0.0 0.00 0.00 0.00 93 1026.4
20210518073355 48 267 0.0 0.0 0.00 0.00 0.00 93 1026.3
20210518072841 48 267 0.0 0.0 0.00 0.00 0.00 93 1026.5
20210518072351 48 267 0.0 0.0 0.00 0.00 0.00 93 1026.5
20210518071841 48 267 0.0 0.0 0.00 0.00 0.00 93 1026.4
20210518071351 48 267 0.0 0.0 0.00 0.00 0.00 93 1026.4
20210518070840 48 267 0.0 0.0 0.00 0.00 0.00 93 1026.3
20210518070351 48 267 0.0 0.0 0.00 0.00 0.00 92 1026.4
20210518065842 48 267 0.0 0.0 0.00 0.00 0.00 92 1026.4
20210518065351 48 267 0.0 0.0 0.00 0.00 0.00 92 1026.4
20210518064840 48 267 0.0 0.0 0.00 0.00 0.00 92 1026.3
20210518064351 49 267 0.0 0.0 0.00 0.00 0.00 92 1026.4
20210518063840 49 267 0.0 0.0 0.00 0.00 0.00 92 1026.5
20210518063352 49 267 0.0 0.0 0.00 0.00 0.00 92 1026.4
20210518062841 49 267 0.0 0.0 0.00 0.00 0.00 92 1026.4
20210518062350 49 267 0.0 0.0 0.00 0.00 0.00 92 1026.4
20210518061839 49 267 0.0 0.0 0.00 0.00 0.00 92 1026.4
20210518061349 49 267 0.0 0.0 0.00 0.00 0.00 92 1026.4
20210518060839 49 267 0.0 0.0 0.00 0.00 0.00 92 1026.5
20210518060351 49 267 0.0 0.0 0.00 0.00 0.00 92 1026.5
20210518055855 49 267 0.0 0.0 0.00 0.00 0.00 91 1026.5
20210518055343 49 267 0.0 0.0 0.00 0.00 0.00 91 1026.6
20210518054853 49 267 0.0 0.0 0.00 0.00 0.00 91 1026.6
20210518054342 50 267 0.0 0.0 0.00 0.00 0.00 91 1026.6
20210518053853 50 267 0.0 0.0 0.00 0.00 0.00 91 1026.6
20210518053339 50 267 0.0 0.0 0.00 0.00 0.00 91 1026.7
20210518052846 50 267 0.0 0.0 0.00 0.00 0.00 91 1026.7
20210518052336 50 267 0.0 0.0 0.00 0.00 0.00 91 1026.7
20210518051846 50 267 0.0 0.0 0.00 0.00 0.00 91 1026.8
20210518050835 50 267 0.0 0.0 0.00 0.00 0.00 90 1026.8
20210518050346 51 267 0.0 0.0 0.00 0.00 0.00 90 1026.8
20210518045853 51 267 0.0 0.0 0.00 0.00 0.00 90 1026.7
20210518045344 51 267 0.0 0.0 0.00 0.00 0.00 90 1026.8
20210518044838 51 267 0.0 0.0 0.00 0.00 0.00 90 1026.8
20210518044348 51 267 0.0 0.0 0.00 0.00 0.00 90 1026.8
20210518043835 51 267 0.0 0.0 0.00 0.00 0.00 90 1026.8
20210518043347 51 267 0.0 0.0 0.00 0.00 0.00 90 1026.8
20210518042853 52 267 0.0 0.0 0.00 0.00 0.00 90 1026.8
20210518042342 52 267 0.0 0.0 0.00 0.00 0.00 90 1026.7
20210518041354 52 267 0.0 0.0 0.00 0.00 0.00 89 1026.7
20210518040845 52 267 0.0 0.0 0.00 0.00 0.00 89 1026.7
20210518040357 52 267 0.0 0.0 0.00 0.00 0.00 89 1026.7
20210518035843 53 267 0.0 0.0 0.00 0.00 0.00 88 1026.8
20210518035353 53 267 0.0 0.0 0.00 0.00 0.00 88 1026.8
20210518034842 53 267 0.0 0.0 0.00 0.00 0.00 88 1026.7
20210518034353 53 267 0.0 0.0 0.00 0.00 0.00 88 1026.7
20210518033843 53 267 0.0 0.0 0.00 0.00 0.00 88 1026.7
20210518033355 54 267 0.0 0.0 0.00 0.00 0.00 87 1026.8
20210518032840 54 267 0.0 0.0 0.00 0.00 0.00 87 1026.8
20210518032350 54 267 0.0 0.0 0.00 0.00 0.00 87 1026.8
20210518031839 54 267 0.0 0.0 0.00 0.00 0.00 86 1026.8
20210518031349 54 267 0.0 0.0 0.00 0.00 0.00 86 1026.8
20210518030838 55 267 0.0 0.0 0.00 0.00 0.00 86 1026.8
20210518030350 55 267 0.0 0.0 0.00 0.00 0.00 85 1026.8
20210518025836 55 267 0.0 0.0 0.00 0.00 0.00 85 1026.8
20210518025346 55 267 0.0 0.0 0.00 0.00 0.00 84 1026.8
20210518024836 56 267 0.0 0.0 0.00 0.00 0.00 85 1026.7
20210518024347 56 267 0.0 0.0 0.00 0.00 0.00 84 1026.7
20210518023836 56 267 0.0 0.0 0.00 0.00 0.00 84 1026.7
20210518023348 56 267 0.0 0.0 0.00 0.00 0.00 83 1026.8
20210518022855 57 267 0.0 0.0 0.00 0.00 0.00 82 1026.8
20210518022345 57 267 0.0 0.0 0.00 0.00 0.00 82 1026.9
20210518021835 57 267 0.0 0.0 0.00 0.00 0.00 82 1027.0
20210518021345 57 267 0.0 0.0 0.00 0.00 0.00 82 1027.0
20210518020840 58 267 0.0 0.0 0.00 0.00 0.00 82 1027.0
20210518020351 58 267 0.0 0.0 0.00 0.00 0.00 81 1026.8
20210518015837 58 267 0.0 0.0 0.00 0.00 0.00 82 1026.8
20210518015348 59 267 0.0 0.0 0.00 0.00 0.00 82 1026.8
20210518014838 59 267 0.0 0.0 0.00 0.00 0.00 82 1026.8
20210518014348 59 267 0.0 0.0 0.00 0.00 0.00 81 1026.8
20210518013839 59 267 0.0 0.0 0.00 0.00 0.00 80 1026.8
20210518013352 59 267 0.0 0.0 0.00 0.00 0.00 79 1026.7
20210518012839 60 267 0.0 0.0 0.00 0.00 0.00 80 1026.6
20210518012349 60 267 0.0 0.0 0.00 0.00 0.00 79 1026.5
20210518011839 60 267 0.0 0.0 0.00 0.00 0.00 79 1026.4
20210518011349 61 267 0.0 0.0 0.00 0.00 0.00 79 1026.4
20210518010838 61 267 0.0 0.0 0.00 0.00 0.00 78 1026.4
20210518010349 61 267 0.0 0.0 0.00 0.00 0.00 79 1026.3
20210518005855 61 267 0.0 0.0 0.00 0.00 0.00 77 1026.3
20210518005346 62 267 0.0 0.0 0.00 0.00 0.00 77 1026.2
20210518004855 62 267 0.0 0.0 0.00 0.00 0.00 76 1026.2
20210518004345 62 267 0.0 0.0 0.00 0.00 0.00 75 1026.2
20210518003855 63 267 0.0 0.0 0.00 0.00 0.00 74 1026.3
20210518003347 63 267 0.0 0.0 0.00 0.00 0.00 72 1026.3
20210518002854 64 267 0.0 0.0 0.00 0.00 0.00 72 1026.2
20210518002344 64 267 0.0 0.0 0.00 0.00 0.00 71 1026.1
20210518001854 64 267 0.0 2.6 0.00 0.00 0.00 67 1026.0
20210518001344 65 267 0.9 2.6 0.00 0.00 0.00 69 1026.0
20210518000836 66 267 0.9 1.7 0.00 0.00 0.00 67 1025.9
20210518000348 66 267 0.0 5.2 0.00 0.00 0.00 62 1025.9
20210517235839 67 267 0.9 5.2 0.00 0.00 0.00 60 1026.1
20210517235349 67 188 0.0 2.6 0.00 0.00 0.00 62 1026.0
20210517234840 68 239 0.0 0.0 0.00 0.00 0.00 56 1026.2
20210517234350 68 239 0.0 0.0 0.00 0.00 0.00 56 1026.0
20210517233839 68 239 0.0 0.0 0.00 0.00 0.00 54 1026.0
20210517233351 68 227 0.0 0.0 0.00 0.00 0.00 54 1025.8
20210517232837 68 227 0.0 0.0 0.00 0.00 0.00 54 1025.8
20210517232347 68 227 0.0 0.0 0.00 0.00 0.00 56 1025.7
20210517231837 68 227 0.0 0.9 0.00 0.00 0.00 57 1025.6
20210517231346 69 227 0.0 2.6 0.00 0.00 0.00 55 1025.5
20210517230837 69 227 0.9 2.6 0.00 0.00 0.00 55 1025.5
20210517230350 69 227 0.0 1.7 0.00 0.00 0.00 57 1025.4
20210517225837 70 227 0.0 2.6 0.00 0.00 0.00 51 1025.3
20210517225346 70 227 0.0 2.6 0.00 0.00 0.00 50 1025.3
20210517224837 71 227 0.0 2.6 0.00 0.00 0.00 50 1025.3
20210517224346 71 227 0.0 5.2 0.00 0.00 0.00 52 1025.3
20210517223855 71 227 0.9 0.0 0.00 0.00 0.00 48 1025.2
20210517223345 72 173 0.0 4.3 0.00 0.00 0.00 50 1025.4
20210517222852 72 161 0.9 3.5 0.00 0.00 0.00 48 1025.4
20210517222343 72 232 0.9 3.5 0.00 0.00 0.00 48 1025.3
20210517221854 72 229 0.9 4.3 0.00 0.00 0.00 49 1025.3
20210517221344 72 230 0.9 5.2 0.00 0.00 0.00 49 1025.3
20210517220854 73 217 1.7 5.2 0.00 0.00 0.00 45 1025.2
20210517220345 73 188 1.7 5.2 0.00 0.00 0.00 46 1025.2
20210517215852 73 79 1.7 5.2 0.00 0.00 0.00 47 1025.2
20210517215344 73 190 3.5 5.2 0.00 0.00 0.00 45 1025.2
20210517214839 73 178 0.9 6.1 0.00 0.00 0.00 47 1025.1
20210517214349 73 133 2.6 6.1 0.00 0.00 0.00 49 1025.1
20210517213839 73 236 0.9 4.3 0.00 0.00 0.00 48 1025.1
20210517213351 73 181 0.9 4.3 0.00 0.00 0.00 49 1025.0
20210517212838 73 207 0.9 4.3 0.00 0.00 0.00 45 1024.9
20210517212348 73 229 0.9 5.2 0.00 0.00 0.00 45 1024.9
20210517211837 73 209 0.9 3.5 0.00 0.00 0.00 49 1024.9
20210517211347 73 198 0.9 2.6 0.00 0.00 0.00 49 1025.0
20210517210838 73 198 0.0 2.6 0.00 0.00 0.00 47 1024.9
20210517210351 74 198 0.0 3.5 0.00 0.00 0.00 43 1024.9
20210517205837 74 193 0.0 3.5 0.00 0.00 0.00 40 1024.9
20210517205347 75 193 1.7 3.5 0.00 0.00 0.00 39 1024.8
20210517204839 75 192 0.9 5.2 0.00 0.00 0.00 40 1024.8
20210517204350 75 196 0.9 5.2 0.00 0.00 0.00 42 1024.8
20210517203840 75 228 1.7 4.3 0.00 0.00 0.00 39 1024.8
20210517203351 76 213 2.6 6.1 0.00 0.00 0.00 38 1024.7
20210517202839 76 215 1.7 5.2 0.00 0.00 0.00 37 1024.7
20210517202351 76 216 2.6 5.2 0.00 0.00 0.00 35 1024.6
20210517201840 77 205 0.9 4.3 0.00 0.00 0.00 37 1024.6
20210517201350 77 116 1.7 4.3 0.00 0.00 0.00 37 1024.7
20210517200853 77 194 0.9 3.5 0.00 0.00 0.00 35 1024.8
20210517200344 77 149 1.7 4.3 0.00 0.00 0.00 36 1024.8
20210517195850 77 196 1.7 4.3 0.00 0.00 0.00 38 1024.8
20210517195339 77 188 1.7 4.3 0.00 0.00 0.00 39 1024.9
20210517194848 77 207 1.7 4.3 0.00 0.00 0.00 34 1025.0
20210517194338 77 219 0.9 6.1 0.00 0.00 0.00 38 1025.1
20210517193848 77 220 1.7 6.1 0.00 0.00 0.00 39 1025.1
20210517193343 77 174 1.7 3.5 0.00 0.00 0.00 40 1025.2
20210517192849 77 174 0.9 3.5 0.00 0.00 0.00 38 1025.2
20210517192338 77 175 0.9 4.3 0.00 0.00 0.00 37 1025.3